When you browse on this site, cookies collect data to enhance your experience and personalize the content and advertising you see.
Visit our Privacy Policy to learn more. By continuing to use the site, you agree to this use of cookies and data.
  • En España
  • Lista de países
  • Para 7 días
  • Temperatura del agua
  • Mapa Satelital
  • El tiempo en el mapa
  • Informadores
  • user-avatar
    Iniciar sesión

    Tiempo cada hora Ondjiwa

    Hoy, 18 Junio, Martes

    Tiempo Temperatura Precipitaciones Viento Presión Humedad
    00:00 +14°C° 0 mm 2 mps 670 mmHg 46%
    01:00 +14°C° 0 mm 2 mps 669 mmHg 49%
    02:00 +12°C° 0 mm 3 mps 669 mmHg 51%
    03:00 +12°C° 0 mm 3 mps 669 mmHg 54%
    04:00 +12°C° 0 mm 3 mps 669 mmHg 56%
    05:00 +11°C° 0 mm 3 mps 670 mmHg 57%
    06:00 +11°C° 0 mm 3 mps 670 mmHg 59%
    07:00 +11°C° 0 mm 3 mps 671 mmHg 60%
    08:00 +15°C° 0 mm 4 mps 672 mmHg 49%
    09:00 +20°C° 0 mm 5 mps 673 mmHg 39%
    10:00 +25°C° 0 mm 5 mps 673 mmHg 28%
    11:00 +26°C° 0 mm 5 mps 673 mmHg 26%
    12:00 +28°C° 0 mm 5 mps 672 mmHg 23%
    13:00 +29°C° 0 mm 5 mps 672 mmHg 20%
    14:00 +29°C° 0 mm 4 mps 672 mmHg 20%
    15:00 +29°C° 0 mm 4 mps 671 mmHg 20%
    16:00 +28°C° 0 mm 4 mps 671 mmHg 20%
    17:00 +25°C° 0 mm 3 mps 670 mmHg 25%
    18:00 +21°C° 0 mm 3 mps 670 mmHg 29%
    19:00 +18°C° 0 mm 2 mps 670 mmHg 34%
    20:00 +17°C° 0 mm 2 mps 670 mmHg 36%
    21:00 +16°C° 0 mm 2 mps 670 mmHg 39%
    22:00 +15°C° 0 mm 2 mps 670 mmHg 41%
    23:00 +15°C° 0 mm 2 mps 670 mmHg 43%

    Mañana, 19 Junio, Miércoles

    Tiempo Temperatura Precipitaciones Viento Presión Humedad
    00:00 +13°C° 0 mm 3 mps 670 mmHg 44%
    01:00 +12°C° 0 mm 3 mps 670 mmHg 46%
    02:00 +12°C° 0 mm 3 mps 670 mmHg 48%
    03:00 +11°C° 0 mm 3 mps 670 mmHg 50%
    04:00 +10°C° 0 mm 3 mps 670 mmHg 52%
    05:00 +10°C° 0 mm 3 mps 670 mmHg 52%
    06:00 +10°C° 0 mm 3 mps 670 mmHg 53%
    07:00 +9°C° 0 mm 3 mps 671 mmHg 54%
    08:00 +13°C° 0 mm 4 mps 672 mmHg 44%
    09:00 +17°C° 0 mm 5 mps 673 mmHg 34%
    10:00 +22°C° 0 mm 6 mps 673 mmHg 23%
    11:00 +25°C° 0 mm 5 mps 673 mmHg 21%
    12:00 +27°C° 0 mm 5 mps 672 mmHg 18%
    13:00 +29°C° 0 mm 5 mps 672 mmHg 16%
    14:00 +29°C° 0 mm 4 mps 672 mmHg 16%
    15:00 +29°C° 0 mm 4 mps 671 mmHg 16%
    16:00 +29°C° 0 mm 3 mps 671 mmHg 16%
    17:00 +26°C° 0 mm 3 mps 670 mmHg 20%
    18:00 +21°C° 0 mm 2 mps 670 mmHg 25%
    19:00 +18°C° 0 mm 2 mps 670 mmHg 30%
    20:00 +17°C° 0 mm 2 mps 670 mmHg 32%
    21:00 +16°C° 0 mm 2 mps 670 mmHg 34%
    22:00 +15°C° 0 mm 2 mps 670 mmHg 36%
    23:00 +15°C° 0 mm 2 mps 670 mmHg 38%

    Pasado mañana, 20 Junio, Jueves

    Tiempo Temperatura Precipitaciones Viento Presión Humedad
    00:00 +14°C° 0 mm 2 mps 670 mmHg 40%
    01:00 +13°C° 0 mm 2 mps 670 mmHg 42%
    02:00 +12°C° 0 mm 2 mps 670 mmHg 45%
    03:00 +12°C° 0 mm 2 mps 670 mmHg 47%
    04:00 +10°C° 0 mm 2 mps 670 mmHg 50%
    05:00 +10°C° 0 mm 2 mps 670 mmHg 51%
    06:00 +9°C° 0 mm 2 mps 670 mmHg 52%
    07:00 +9°C° 0 mm 2 mps 671 mmHg 53%
    08:00 +13°C° 0 mm 3 mps 672 mmHg 43%
    09:00 +19°C° 0 mm 4 mps 673 mmHg 34%
    10:00 +23°C° 0 mm 5 mps 674 mmHg 24%
    11:00 +26°C° 0 mm 5 mps 673 mmHg 21%
    12:00 +27°C° 0 mm 4 mps 672 mmHg 19%
    13:00 +29°C° 0 mm 4 mps 672 mmHg 16%
    14:00 +29°C° 0 mm 4 mps 671 mmHg 16%
    15:00 +29°C° 0 mm 3 mps 671 mmHg 16%
    16:00 +29°C° 0 mm 3 mps 670 mmHg 16%
    17:00 +26°C° 0 mm 3 mps 670 mmHg 20%
    18:00 +23°C° 0 mm 2 mps 670 mmHg 25%
    19:00 +19°C° 0 mm 2 mps 670 mmHg 29%
    20:00 +18°C° 0 mm 2 mps 670 mmHg 32%
    21:00 +17°C° 0 mm 2 mps 670 mmHg 35%
    22:00 +15°C° 0 mm 2 mps 670 mmHg 39%
    23:00 +15°C° 0 mm 2 mps 670 mmHg 41%

    21 Junio, Viernes

    Tiempo Temperatura Precipitaciones Viento Presión Humedad
    00:00 +14°C° 0 mm 2 mps 670 mmHg 44%
    01:00 +14°C° 0 mm 2 mps 670 mmHg 47%
    02:00 +13°C° 0 mm 2 mps 670 mmHg 50%
    03:00 +12°C° 0 mm 2 mps 669 mmHg 52%
    04:00 +12°C° 0 mm 2 mps 669 mmHg 54%
    05:00 +10°C° 0 mm 3 mps 670 mmHg 55%
    06:00 +10°C° 0 mm 3 mps 670 mmHg 56%
    07:00 +10°C° 0 mm 3 mps 670 mmHg 57%
    08:00 +14°C° 0 mm 4 mps 671 mmHg 46%
    09:00 +19°C° 0 mm 4 mps 672 mmHg 35%
    10:00 +25°C° 0 mm 5 mps 673 mmHg 24%
    11:00 +26°C° 0 mm 5 mps 673 mmHg 21%
    12:00 +28°C° 0 mm 4 mps 672 mmHg 19%
    13:00 +30°C° 0 mm 4 mps 672 mmHg 16%
    14:00 +30°C° 0 mm 3 mps 671 mmHg 15%
    15:00 +30°C° 0 mm 3 mps 670 mmHg 15%
    16:00 +30°C° 0 mm 3 mps 670 mmHg 14%
    17:00 +26°C° 0 mm 2 mps 669 mmHg 18%
    18:00 +23°C° 0 mm 2 mps 669 mmHg 21%
    19:00 +19°C° 0 mm 2 mps 669 mmHg 25%
    20:00 +18°C° 0 mm 2 mps 669 mmHg 26%
    21:00 +17°C° 0 mm 2 mps 669 mmHg 28%
    22:00 +16°C° 0 mm 2 mps 669 mmHg 29%
    23:00 +15°C° 0 mm 2 mps 669 mmHg 31%

    22 Junio, Sábado

    Tiempo Temperatura Precipitaciones Viento Presión Humedad
    00:00 +14°C° 0 mm 2 mps 668 mmHg 32%
    01:00 +13°C° 0 mm 2 mps 668 mmHg 34%
    02:00 +12°C° 0 mm 2 mps 668 mmHg 35%
    03:00 +12°C° 0 mm 2 mps 668 mmHg 37%
    04:00 +10°C° 0 mm 2 mps 668 mmHg 39%
    05:00 +10°C° 0 mm 2 mps 668 mmHg 40%
    06:00 +9°C° 0 mm 2 mps 669 mmHg 41%
    07:00 +9°C° 0 mm 2 mps 669 mmHg 41%
    08:00 +13°C° 0 mm 3 mps 670 mmHg 34%
    09:00 +19°C° 0 mm 3 mps 671 mmHg 26%
    10:00 +24°C° 0 mm 3 mps 672 mmHg 19%
    11:00 +26°C° 0 mm 3 mps 671 mmHg 17%
    12:00 +28°C° 0 mm 3 mps 671 mmHg 14%
    13:00 +30°C° 0 mm 2 mps 670 mmHg 12%
    14:00 +30°C° 0 mm 2 mps 670 mmHg 12%
    15:00 +30°C° 0 mm 2 mps 669 mmHg 11%
    16:00 +30°C° 0 mm 1 mps 669 mmHg 10%
    17:00 +26°C° 0 mm 1 mps 668 mmHg 13%
    18:00 +23°C° 0 mm 2 mps 668 mmHg 16%
    19:00 +18°C° 0 mm 2 mps 668 mmHg 19%
    20:00 +17°C° 0 mm 2 mps 668 mmHg 20%
    21:00 +16°C° 0 mm 1 mps 668 mmHg 21%
    22:00 +15°C° 0 mm 1 mps 668 mmHg 22%
    23:00 +14°C° 0 mm 2 mps 668 mmHg 23%

    23 Junio, Domingo

    Tiempo Temperatura Precipitaciones Viento Presión Humedad
    00:00 +13°C° 0 mm 2 mps 667 mmHg 23%
    01:00 +13°C° 0 mm 2 mps 667 mmHg 24%
    02:00 +12°C° 0 mm 2 mps 667 mmHg 25%
    03:00 +10°C° 0 mm 2 mps 667 mmHg 25%
    04:00 +10°C° 0 mm 2 mps 667 mmHg 26%
    05:00 +9°C° 0 mm 2 mps 667 mmHg 27%
    06:00 +9°C° 0 mm 2 mps 668 mmHg 29%
    07:00 +8°C° 0 mm 2 mps 668 mmHg 30%
    08:00 +13°C° 0 mm 2 mps 669 mmHg 25%
    09:00 +18°C° 0 mm 3 mps 670 mmHg 20%
    10:00 +22°C° 0 mm 3 mps 671 mmHg 15%
    11:00 +25°C° 0 mm 3 mps 671 mmHg 13%
    12:00 +27°C° 0 mm 3 mps 670 mmHg 12%
    13:00 +30°C° 0 mm 2 mps 670 mmHg 10%
    14:00 +30°C° 0 mm 2 mps 670 mmHg 10%
    15:00 +30°C° 0 mm 2 mps 669 mmHg 10%
    16:00 +30°C° 0 mm 1 mps 669 mmHg 10%
    17:00 +26°C° 0 mm 1 mps 668 mmHg 13%
    18:00 +23°C° 0 mm 2 mps 668 mmHg 16%
    19:00 +18°C° 0 mm 2 mps 667 mmHg 19%
    20:00 +17°C° 0 mm 2 mps 668 mmHg 20%
    21:00 +16°C° 0 mm 2 mps 668 mmHg 21%
    22:00 +15°C° 0 mm 2 mps 668 mmHg 22%
    23:00 +15°C° 0 mm 2 mps 668 mmHg 24%
    Mostrar más